Location: Nairn
(57.5833°N, 3.8667°W)
Time: 02:33:21
(UTC+00:00)

Meteor 1-21 Rocket - Pass Details

Date: 07 August 2020
Orbit: 833 x 908 km, 81.2° (Epoch: 27 September)

Event Time Altitude Azimuth Distance (km) Brightness Sun altitude
Rises 03:06:44 0° 344° (NNW) 3,429 7.9 -8.6°
Reaches altitude 10° 03:09:11 10° 346° (NNW) 2,480 7.2 -8.4°
Maximum altitude 03:14:48 81° 73° (ENE) 855 4.4 -7.9°
Drops below altitude 10° 03:20:20 10° 162° (SSE) 2,441 6.3 -7.4°
Sets 03:22:44 0° 163° (SSE) 3,371 7.0 -7.2°
